STARLINK-11288, 61002

Orbit data source: Space-Track

STARLINK-11288, 61002 is a payload satellite owned by SpaceX/Seattle (US) in LEO that was launched on Thu, 05 Sep 2024 UTC via an FALCON 9 launch vehicle from the Air Force Eastern Test Range (AFETR). Payload-class satellites include a variety of spacecraft equipped with specific instruments for various scientific and technological missions. These include communications satellites like Starlink; space stations such as the ISS; scientific satellites like the Hubble; Earth observation satellites from companies like Planet Labs, Umbra, and HawkEye 360; GPS; miniature CubeSats for education and research; and military/defense satellites.

Loading next visibility...
Identifier
61002, 2024-158N
Orbit
LEO
Country
Flag of USUS
Related business
Manufacturer
SpaceX/Seattle
Mission
Operational Commercial Communications
Bus & Motor
STARLINK V2MD, Unknown motor
Mass
960 kg wet, ~910 kg dry
Launch date (UTC)
2024-09-05 (1 year ago)
Launch vehicle
FALCON 9
Launch site
Air Force Eastern Test Range (AFETR)
Object type
Payload
Rocket body
Debris
Shape & HBR
Box + 2 Pan, 14.5 m
Radar Cross Section
36.964 m², Large (>1 m²)

Expand to show TLE details & history
Last TLE update: 15 hours ago

TLE from 15 hours ago
0 STARLINK-11288
1 61002U 24158N   25258.70667567  .00002018  00000-0  21495-4 0  9991
2 61002  53.1600  63.7169 0001088  81.3578 278.7563 15.69725393 60102
Epoch: 2025-09-15T16:57Z
TLE epoch observation values (Epoch: 2025-09-15T16:57:36.777Z)
Latitude
-0.00006°
Longitude
174.40615°
Altitude
360.486 km
Speed
7.694 km/s
True Right ascension
04h 14m 52s
True Declination
0° 00' 00"
Sunlit
Object was in full shadow at epoch
Visualization orbit readout
Latitude
Unknown
Longitude
Unknown
Altitude
Unknown
Speed
Unknown
Apparent Right ascension
Unknown
Apparent Declination
Unknown
Sunlit
N/A
Visualization observer readout
Local Sidereal Time
00:40:44
Azimuth
Unknown
Elevation
Unknown
Doppler factor
Unknown
Orbital elements
Apogee altitude
360.676 km
Perigee altitude
359.21 km
Semi-major axis
6,738.08 km
Eccentricity
0.00011
Inclination
53.16°
RAAN
63.7169°
Arg. of periapsis
81.3578°
True anomaly
278.74398°
Mean anomaly
278.7563°
Eccentric anomaly
278.75014°
Mean motion
3.92409 °/min
Orbital period
91.74 mins
BSTAR
0.000021495
Loading maneuver chart data...
Computing Atmospheric mass density...
Loading historical data...
Loading historical data...
Loading historical data...
Loading historical data...
Loading historical data...
Loading historical data...
Loading historical data...

Documentation

Showing up to 5 results
|